www.pogodaiklimat.ru

Погода и климат >> Архив погоды >> Россия >> Удмуртия >> Ижевск


АРХИВ ПОГОДЫ в Ижевске

Время (UTC), дата Ветер
(напр.,м/с)
 
Видим.   Явления Облачность Т
(С)
Тd
(С)
f
(%)
Тe
(С)
Тes
(С)
Комфортность P
(гПа)
Po
(гПа)
Тmin
(С)
Tmax
(С)
R
(мм)
R24
(мм)
S
(см)
09 10.11 С 3-4
{5}
10 км ясно -6.2 -12.1 63 -12 -10 прохладно 1038.4 1017.3
12 10.11 СВ 2-3
{6}
10 км ясно -6.3 -13.9 55 -10 -10 по сезону 1040.0 1018.8
15 10.11 СВ 3-4
{6}
10 км 3/0
[Ci fib]
-9.0 -13.4 70 -15 -15 холодно 1042.4 1021.0 -6.0
18 10.11 СВ 2-3
{5}
10 км 3/0
[Ci fib]
-11.7 -13.7 85 -16 -16 холодно 1044.9 1023.1
21 10.11 С 1-2
{3}
10 км 3/0
[Ci fib]
-13.3 -15.3 85 -16 -16 холодно 1046.7 1024.8
00 11.11 штиль 0-1
{2}
10 км ясно -14.9 -16.2 90 -15 -15 прохладно 1048.2 1026.3
03 11.11 штиль 0-1
{2}
10 км ясно -15.7 -17.0 90 -16 -16 холодно 1049.7 1027.7 -15.7
06 11.11 штиль 0-1
{2}
10 км 1/0
[Ci fib]
-14.0 -14.6 95 -14 -13 прохладно 1051.2 1029.1 -16.1
09 11.11 штиль 0-1
{2}
10 км 10/0
[Ci]
-7.6 -11.1 76 -8 -7 по сезону 1051.4 1029.9
12 11.11 штиль 0-2
{3}
10 км 10/0
[Ac trans Ci fib]
-7.0 -12.7 64 -7 -7 по сезону 1052.0 1030.5
15 11.11 штиль 0-1
{2}
10 км 8/0
[Ci fib]
-9.0 -13.4 70 -9 -9 по сезону 1052.3 1030.7 -6.9
18 11.11 штиль 0-2
{3}
10 км 8/0
[Ci fib]
-11.1 -12.4 90 -11 -11 по сезону 1052.5 1030.7
21 11.11 штиль 0-2
{3}
10 км 4/0
[Ci fib]
-11.8 -13.1 90 -12 -12 по сезону 1052.8 1030.9
00 12.11 штиль 0-2
{3}
10 км 4/0
[Ci fib]
-12.8 -14.1 90 -13 -13 прохладно 1052.6 1030.6
03 12.11 штиль 0-2
{4}
10 км 4/0
[Ci fib]
-12.8 -14.1 90 -13 -13 прохладно 1052.0 1030.0 -13.2
06 12.11 З 2-4
{5}
10 км 3/0
[Ci fib]
-10.2 -12.2 85 -15 -14 холодно 1051.4 1029.7
09 12.11 З 2-4
{6}
10 км 4/0
[Ci fib]
-5.4 -13.0 55 -9 -8 по сезону 1050.2 1028.9
12 12.11 З 1-3
{6}
10 км 8/0
[Ci fib]
-4.6 -15.1 44 -6 -6 по сезону 1049.2 1028.0
15 12.11 З 2-4
{6}
10 км 8/0
[Ci fib]
-6.8 -13.5 59 -11 -11 по сезону 1049.1 1027.6 -4.4
18 12.11 З 3-5
{7}
10 км 8/0
[Ci fib]
-7.8 -12.8 67 -13 -13 прохладно 1047.9 1026.4
21 12.11 З 2-4
{7}
10 км 6/0
[Ci fib]
-8.6 -13.4 68 -13 -13 прохладно 1047.6 1026.1
00 13.11 З 1-3
{5}
10 км 4/0
[Ci fib]
-9.9 -13.0 78 -12 -12 по сезону 1047.3 1025.7
03 13.11 З 2-4
{5}
10 км ясно -10.3 -12.5 84 -15 -15 прохладно 1046.5 1024.9 -10.4
06 13.11 ЮЗ 2-4
{6}
10 км 9/0
[Ac trans Ci fib]
-9.7 -12.3 81 -14 -14 прохладно 1046.1 1024.5
09 13.11 З 2-4
{6}
10 км 8/0
[Ci fib]
-6.0 -13.4 56 -10 -9 по сезону 1045.1 1023.8
12 13.11 З 3-4
{5}
10 км 8/0
[Ac trans Ci fib]
-3.8 -14.8 42 -8 -8 по сезону 1043.5 1022.5
15 13.11 З 3-4
{6}
10 км 8/0
[Ci fib]
-5.8 -14.2 51 -11 -11 по сезону 1042.8 1021.6 -3.8
18 13.11 ЮЗ 3-4
{6}
10 км 8/0
[Ci fib]
-7.9 -13.5 64 -13 -13 прохладно 1041.6 1020.2
21 13.11 ЮЗ 3-3
{5}
10 км 6/0
[Ci fib]
-8.8 -13.7 68 -14 -14 прохладно 1040.2 1018.8
00 14.11 ЮЗ 3-3
{6}
10 км 3/0
[Ci fib]
-9.5 -13.6 72 -15 -15 прохладно 1039.1 1017.8
03 14.11 ЮЗ 3-4
{6}
10 км ясно -9.5 -13.6 72 -15 -15 прохладно 1037.6 1016.3 -10.1
06 14.11 ЮЗ 3-4
{5}
10 км 3/0
[Ac trans]
-8.0 -11.2 78 -14 -13 прохладно 1036.5 1015.3
09 14.11 ЮЗ 4-5
{6}
10 км 4/0
[Ac trans]
-2.9 -11.0 54 -8 -8 по сезону 1035.4 1014.6
12 14.11 ЮЗ 4-5
{6}
10 км 6/0
[Ac trans]
-2.0 -12.6 44 -7 -7 по сезону 1034.9 1014.1
15 14.11 ЮЗ 3-4
{7}
10 км 4/0
[Ac trans]
-4.4 -11.4 58 -9 -9 по сезону 1035.0 1014.1 -2.0
18 14.11 ЮЗ 2-3
{4}
10 км 3/0
[Ci fib]
-7.0 -13.3 61 -11 -11 по сезону 1035.5 1014.4
21 14.11 ЮЗ 3-4
{5}
10 км ясно -7.9 -13.0 67 -13 -13 по сезону 1036.7 1015.5
00 15.11 ЮЗ 3-4
{5}
10 км ясно -9.6 -13.2 75 -15 -15 прохладно 1036.5 1015.2
03 15.11 ЮЗ 3-4
{5}
10 км ясно -9.6 -12.2 81 -15 -15 прохладно 1037.5 1016.2 -9.8
06 15.11 З 2-4
{6}
10 км 9/0
[Ac trans]
-7.8 -12.3 70 -12 -12 по сезону 1038.6 1017.4
09 15.11 ЮЗ 2-4
{6}
10 км 9/0
[Ac trans]
-5.2 -9.3 73 -9 -9 по сезону 1039.5 1018.4
12 15.11 З 1-3
{6}
10 км 9/0
[Ac trans]
-3.1 -7.0 74 -5 -5 по сезону 1040.4 1019.5
15 15.11 З 2-3
{5}
10 км 9/4 1000 м
[Sc Ac trans]
-2.3 -3.8 89 -6 -6 по сезону 1041.4 1020.5 -2.1
18 15.11 З 1-2
{4}
10 км 9/0
[Ac trans]
-2.9 -4.2 91 -5 -5 по сезону 1042.0 1021.1
21 15.11 З 1-2
{4}
10 км 9/0
[Ac trans]
-2.9 -3.9 93 -5 -5 по сезону 1042.4 1021.5
00 16.11 З 1-3
{5}
10 км 10/3 1000 м
[Sc Ac As]
-2.8 -7.7 69 -5 -5 тепло 1042.4 1021.5
03 16.11 З 1-2
{4}
10 км 10/0
[Ac As]
-2.8 -8.5 65 -5 -5 тепло 1042.6 1021.7 -3.2
06 16.11 ЮЗ 2-3
{5}
10 км 10/0
[Ac und]
-2.2 -8.5 62 -6 -6 по сезону 1042.1 1021.2
09 16.11 З 2-4
{6}
10 км 10/0
[Ac und]
-0.4 -8.3 55 -3 -3 тепло 1041.1 1020.4
12 16.11 З 4-6
{8}
10 км 10/4 1000 м
[Sc Ac und]
0.0 -10.5 45 -5 -5 по сезону 1039.1 1018.4
15 16.11 ЮЗ 4-6
{10}
10 км 10/4 1000 м
[Sc Ac As]
-0.8 -12.0 42 -6 -6 по сезону 1037.4 1016.7 +0.3
18 16.11 З 4-7
{10}
10 км 10/0
[Ac As]
-1.0 -9.7 52 -6 -6 по сезону 1034.8 1014.1
21 16.11 СЗ 4-6
{8}
10 км 10/4 1000 м
[Sc Ac As]
-1.4 -7.0 66 -7 -7 по сезону 1033.0 1012.4
00 17.11 З 4-6
{8}
10 км слабый снег 10/4 1000 м
[Sc Ac As]
-1.7 -4.8 79 -7 -7 по сезону 1031.4 1010.8
03 17.11 З 3-5
{7}
10 км слабый снег 10/8 600 м
[Sc Ac As]
-1.4 -3.7 84 -6 -6 по сезону 1030.4 1009.8 -1.9 0.0
06 17.11 З 4-5
{6}
10 км слабый снег 10/8 300 м
[Sc Ac As]
-2.0 -3.5 89 -8 -8 по сезону 1028.8 1008.1 -2.3

 

Местоположение метеостанции Ижевск (Удмуртия, Россия): широта 56.83 долгота 53.45 высота над уровнем моря 159 м.

В архиве по умолчанию представлена погода в Ижевске за последнюю неделю. Архивные данные за месяц целиком и за предыдущие месяцы, начиная с января 2011 года, Вы можете получить, выбрав интересующий диапазон дат из раскрывающегося списка и нажав кнопку "Ввод!".


*Определитесь, кто Вы:
робот инопланетянин человек

Внимание! Время в таблицах - всемирное. Для получения местного времени необходимо прибавить поправку, которая в Ижевске равна 4 ч.

Смотрите также архив погоды в соседних городах и на ближайших метеорологических станциях:

Погода в Воткинске (Удмуртия, Россия) (38 км)
Погода в Чайковском (Пермский край, Россия) (39 км)
Погода в Сарапуле (Удмуртия, Россия) (44 км)
Погода в Игре (Удмуртия, Россия) (83 км)
Погода в Ножовке (Пермский край, Россия) (84 км)
Погода в Можге (Удмуртия, Россия) (88 км)
Погода в Дебесах (Удмуртия, Россия) (92 км)
Погода в Селтах (Удмуртия, Россия) (94 км)
Погода в Янауле (Башкирия, Россия) (109 км)
Погода в Мензелинске (Татарстан, Россия) (126 км)

Пояснения к столбцам:

Ветер - указаны скорость ветра в м/с - средняя за 10 мин, порывы в срок и между сроками (в фигурных скобках) и направление, откуда дует ветер: С - северный, СВ - северо-восточный, В - восточный, ЮВ - юго-восточный, Ю - южный, ЮЗ - юго-западный, З - западный, СЗ - северо-западный.
Видимость - горизонтальная дальность видимости в метрах или километрах. При видимости от 1 до 10 км при отсутствии осадков обычно наблюдается дымка, при ухудшении видимости до 1 км и менее - туман. В сухую погоду видимость может ухудшаться дымом, пылью или мглою.
Явления - указаны атмосферные явления, наблюдавшиеся в срок или в последний час перед сроком; фигурными скобками обозначены явления, наблюдавшиеся между сроками (за 1-3 часа до срока); квадратными скобками обозначены град или гололедные отложения с указанием их диаметра в мм.
Облачность - указаны через наклонную черту общая и нижняя облачность в баллах и высота нижней границы облаков в метрах; квадратными скобками обозначены формы облаков: Ci - перистые, Cs - перисто-слоистые, Cc - перисто-кучевые, Ac - высококучевые, As - высокослоистые, Sc - слоисто-кучевые, Ns - слоисто-дождевые, Cu - кучевые, Cb - кучево-дождевые. Подробнее классификацию облаков см. в Атласе облаков (PDF).
T - Температура воздуха - температура, измеренная на высоте 2 м над землей.
Td - Температура точки росы - температура, при понижении до которой содержащийся в воздухе водяной пар достигнет насыщения.
f - Относительная влажность воздуха - влажноcть воздуха, измеренная на высоте 2 м над землей.
Te - Эффективная температура - температура, которую ощущает одетый по сезону человек в тени. Характеристика душности погоды. При расчете учитывается влияние влажности воздуха и скорости ветра на теплоощущения человека.
Tes - Эффективная температура на солнце - температура, которую ощущает человек, с поправкой на солнечный нагрев. Характеристика знойности погоды. Зависит от высоты солнца над горизонтом, облачности и скорости ветра. Ночью, в пасмурную погоду, а также при ветре 12 м/с и более поправка равна нулю.
P - Атмосферное давление - приведенное к уровню моря атмосферное давление.
Po - Атмосферное давление - измеренное на уровне метеостанции атмосферное давление.
Tmin - Минимальная температура - минимум температуры воздуха на высоте 2 м над землей.
Tmax - Максимальная температура - максимум температуры воздуха на высоте 2 м над землей.
R - Количество осадков - Количество выпавших осадков за период времени, мм. При наведении курсора мыши на число - период времени, за который выпало указанное количество осадков.
R24 - Количество осадков - Количество выпавших осадков за 24 часа, мм.
S - Снежный покров - Высота снежного покрова, см. При наведении курсора мыши на число - состояние снежного покрова и степень покрытия местности в баллах.